Regional Weather Roundup
Issued by NWS Cleveland, OH

Home | Current Version | Previous Version | Text Only | Print | Product List | Glossary Off
Versions: 1 2 3 4 5 6 7 8 9 10 11 12 13 14 15 16 17 18 19 20 21 22 23 24 25 26 27 28 29 30 31 32 33 34 35 36 37 38 39 40 41 42 43 44 45 46 47 48 49 50

000
ASUS41 KCLE 072210
RWRCLE
OHIO REGIONAL WEATHER ROUNDUP
NATIONAL WEATHER SERVICE CLEVELAND, OH
500 PM EST WED DEC 07 2016

NOTE: "FAIR" INDICATES FEW OR NO CLOUDS BELOW 12,000 FEET WITH NO
SIGNIFICANT WEATHER AND/OR OBSTRUCTIONS TO VISIBILITY.

OHZ001>008-015>018-024>027-034-035-043-044-072300-
   NORTHWEST OHIO

CITY           SKY/WX    TMP DP  RH WIND       PRES   REMARKS
DEFIANCE       PTCLDY    34  23  64 W8        30.08R WCI  27
FINDLAY        CLOUDY    35  23  61 SW10      30.08R WCI  27
TOLEDO EXPRESS PTCLDY    33  23  66 SW12      30.05S WCI  24
TOLEDO EXEC    PTCLDY    34  26  72 SW12      30.07R WCI  25
LIMA           CLOUDY    33  26  75 W8        30.08R WCI  26
$$

OHZ009>014-019>023-028>033-038-089-072300-
   NORTHEAST OHIO

CITY           SKY/WX    TMP DP  RH WIND       PRES   REMARKS
CLE-HOPKINS    MOCLDY    36  20  52 SW10      30.08R
CLE-LAKEFRONT  CLEAR     36  21  54 SW13      30.05R
CUY CO. ARPT   PTCLDY    36  23  60 SW12      30.05R
LORAIN-ELYRIA  PTCLDY    34  21  59 SW12      30.07R WCI  25
ASHTABULA      PTCLDY    34  22  61 SW7       30.04R WCI  28
AKRON-CANTON   MOCLDY    36  19  50 SW10      30.06R
WOOSTER        CLOUDY    34  21  59 SW9       30.07R WCI  27
MANSFIELD      MOCLDY    33  24  69 SW8       30.06R WCI  26
YOUNGSTOWN     CLOUDY    35  22  58 SW7       30.04S WCI  29
$$

OHZ042-051>053-060>062-070>072-077>081-072300-
  SOUTHWEST OHIO

CITY           SKY/WX    TMP DP  RH WIND       PRES   REMARKS
CINC-COVINGTON CLOUDY    37  23  56 W6        30.12S
CINC-LUNKEN    CLOUDY    39  24  55 W8        30.15S
HAMILTON       CLOUDY    38  25  59 VRB3      30.15R
DAYTON         MOCLDY    34  22  61 SW9       30.11S WCI  27
WRIGHT-PAT AFB MOCLDY    36  22  56 SW6       30.11S
DAYTON GENERAL CLOUDY    37  22  54 W7        30.11S
WILMINGTON     CLOUDY    36  22  56 W9        30.11S
$$

OHZ036-037-039>041-045>050-054>059-063>069-073>076-082>088-072300-
  CENTRAL AND SOUTHEAST OHIO

CITY           SKY/WX    TMP DP  RH WIND       PRES   REMARKS
COLUMBUS       CLOUDY    36  25  64 SW8       30.10S
OSU AIRPORT    CLOUDY    36  26  67 S9        30.10R
BOLTON FIELD   CLOUDY    36  25  64 SW7       30.11S
RICKENBACK AFB   N/A     35  25  67 W5        30.11S
NEWARK         CLOUDY    35  23  61 SW6       30.10S
MARION         MOCLDY    35  23  61 SW10      30.09R WCI  27
LANCASTER      CLOUDY    36  25  64 W3        30.11S
ZANESVILLE     CLOUDY    37  23  56 SW3       30.10S
NEW PHILLY     NOT AVBL
$$



USA.gov is the U.S. government's official web portal to all federal, state and local government web resources and services.